Terminal Aerodrome Forecast
Issued by NWS

Home | Current Version | Previous Version | Text Only | Print | Product List | Glossary On
Versions: 1 2 3 4 5 6 7 8 9 10 11 12 13 14 15 16 17 18 19 20 21 22 23 24
000
FTUS41 KOKX 181100
TAFSWF
TAF
KSWF 181134Z 1812/1918 VRB03KT P6SM SCT070 SCT250
     FM181500 32006KT P6SM SCT070 SCT250
     FM182300 01005KT P6SM SCT070
     FM190600 02007KT P6SM SCT070
     FM191500 07009KT P6SM FEW050
      AMD NOT SKED=

USA.gov is the U.S. government's official web portal to all federal, state and local government web resources and services.